COSMOS 2436 (723)

Last updated on Wed Sep 09 2026 00:03:23 GMT+0000 (Coordinated Universal Time)

1 32395U 07065C 26249.72854771 -.00000005 00000+0 00000+0 0 9998 2 32395 64.3283 189.2398 0017424 358.1541 147.5613 2.13099899145462
UTC large
Height (km)
Speed (km/s)
/
Latitude / Longitude
Inclination (degrees)
Orbital Period (minutes)
Azimuth
Elevation
Range (km)
Doppler Factor

Next 0 passes for location: London (51.5072 / 0.1276)

No passes found over London.
COSMOS 2436 (723)